This is the latest recevied weather packets stored in our database for station/object AE0NK. If no packets are shown the sender has not sent any weather packets the latest 1 day(s).
| Time | Temp. | Humidity | Pressure | Rain* | Wind** | Luminosity | Snow |
|---|---|---|---|---|---|---|---|
| 1778039298 | 10.56° C | 45% | 1011.8 hPa | 0 mm | 0.45 m/s, 321° | 0 W/m² | - |
| 1778038998 | 10.56° C | 45% | 1011.8 hPa | 0 mm | 0 m/s | 0 W/m² | - |
| 1778038696 | 10.56° C | 45% | 1011.8 hPa | 0 mm | 0 m/s | 0 W/m² | - |
| 1778038393 | 10.56° C | 44% | 1012 hPa | 0 mm | 0 m/s | 0 W/m² | - |
| 1778038106 | 11.11° C | 43% | 1011.9 hPa | 0 mm | 0.45 m/s, 337° | 0 W/m² | - |
| 1778037807 | 11.11° C | 42% | 1011.8 hPa | 0 mm | 0.45 m/s, 338° | 0 W/m² | - |
| 1778037504 | 11.11° C | 42% | 1011.9 hPa | 0 mm | 0.45 m/s, 338° | 0 W/m² | - |
| 1778037202 | 11.11° C | 43% | 1011.8 hPa | 0 mm | 0.45 m/s, 314° | 0 W/m² | - |
| 1778036900 | 11.11° C | 41% | 1011.9 hPa | 0 mm | 1.34 m/s, 338° | 0 W/m² | - |
| 1778036599 | 11.11° C | 42% | 1011.8 hPa | 0 mm | 0 m/s | 0 W/m² | - |
| 1778036294 | 11.11° C | 40% | 1011.6 hPa | 0 mm | 0.89 m/s, 294° | 0 W/m² | - |
| 1778035991 | 11.67° C | 43% | 1011.4 hPa | 0 mm | 1.34 m/s, 360° | 0 W/m² | - |
| 1778035709 | 11.67° C | 41% | 1011.4 hPa | 0 mm | 1.34 m/s, 31° | 0 W/m² | - |
| 1778035407 | 11.67° C | 40% | 1011.2 hPa | 0 mm | 1.34 m/s, 340° | 0 W/m² | - |
| 1778035106 | 11.67° C | 43% | 1011.3 hPa | 0 mm | 0.45 m/s, 360° | 0 W/m² | - |
| 1778034804 | 11.67° C | 42% | 1011 hPa | 0 mm | 1.34 m/s, 15° | 0 W/m² | - |
| 1778034502 | 11.67° C | 42% | 1011.3 hPa | 0 mm | 0.89 m/s, 296° | 0 W/m² | - |
| 1778034200 | 11.67° C | 47% | 1010.9 hPa | 0 mm | 0.89 m/s, 355° | 0 W/m² | - |
| 1778033899 | 12.22° C | 45% | 1010.7 hPa | 0 mm | 0.45 m/s, 348° | 0 W/m² | - |
| 1778033597 | 12.22° C | 42% | 1010.5 hPa | 0 mm | 0 m/s | 0 W/m² | - |
| 1778033296 | 12.22° C | 41% | 1010.4 hPa | 0 mm | 0 m/s | 0 W/m² | - |
| 1778032993 | 12.22° C | 40% | 1010.3 hPa | 0 mm | 0.45 m/s, 303° | 0 W/m² | - |
| 1778032707 | 12.22° C | 40% | 1010.2 hPa | 0 mm | 0 m/s | 0 W/m² | - |
| 1778032404 | 12.78° C | 39% | 1010.2 hPa | 0 mm | 0 m/s | 0 W/m² | - |
| 1778032102 | 12.78° C | 39% | 1010.1 hPa | 0 mm | 0 m/s | 0 W/m² | - |
* Rain latest hour (hover to see other rain measurements)
** Current wind speed in m/s (hover to see current wind gust speed)